Content
SEND FEEDBACK

Daily
Averages
Monthly
Summary
United States of America

MANGILAO, GUAM


Home > North America > United States > Guam
Elevation: 60 feet     Latitude: 13 27N     Longitude: 144 49E

WEATHER
 
SELECT A DAY
Number of Records: 342,166;   Date Range: 1/1/95 - 8/12/14
 
SHARE

PRINT THIS DATA

[ ← Previous Day ]
WEATHER ALMANAC - MARCH 16, 2013
[ Next Day → ]
[ °C ]   °F
Weather ElementAverageHighLow
Temperature78.4 °F82.4 °F (12:41 pm)75.2 °F (4:50 am)
Dewpoint71.7 °F75.2 °F (11:38 am)69.8 °F (4:50 am)
Humidity79.8 %94 % (11:23 am)69 % (3:55 pm)
Barometer29.90 in29.95 in (9:55 am)29.85 in (3:55 pm)
Wind Speed14 mph23 mph (11:14 am)
Wind Gust31.1 mph (11:14 am)
Weather ElementAverage
Visibility9.2 mi
Wind DirectionENE (56.6 °)

Weather ElementTotal
Precipitation---
Cooling Degree Days13.8 (Base 65)
Growing Degree Days28.8 (Base 50)
Averaged from 71 records on March 16, 2013
WEATHER CONDITIONS BREAKOUT
WIND DIRECTION BREAKOUT
WEATHER BY HOUR - MARCH 16, 2013
[ °C ]   °F
Local TimeTemperatureDewpointHumidityBarometerVisibilityWind DirectionWind SpeedGust SpeedPrecipitationEventsConditions
12:23 AM77.0 °F71.6 °F83 %29.93 in10.0 miENE (60°)12.7 mphScattered Clouds
12:54 AM77.0 °F71.6 °F83 %29.92 in10.0 miNE (50°)13.8 mphMostly Cloudy
12:55 AM76.6 °F71.6 °F84 %29.92 in10.0 miNE (50°)12.7 mphMostly Cloudy
1:08 AM77.0 °F71.6 °F83 %29.92 in10.0 miENE (60°)13.8 mphMostly Cloudy
1:10 AM77.0 °F71.6 °F83 %29.92 in10.0 miNE (50°)11.5 mphMostly Cloudy
1:14 AM77.0 °F71.6 °F83 %29.91 in10.0 miENE (60°)10.4 mphMostly Cloudy
1:55 AM76.5 °F70.7 °F82 %29.90 in10.0 miENE (60°)12.7 mphPartly Cloudy
2:55 AM76.5 °F71.2 °F84 %29.89 in10.0 miNE (50°)9.2 mphPartly Cloudy
3:55 AM76.1 °F70.5 °F83 %29.88 in10.0 miNE (50°)12.7 mphScattered Clouds
4:37 AM77.0 °F71.6 °F83 %29.87 in10.0 miNE (50°)11.5 mphMostly Cloudy
4:50 AM75.2 °F69.8 °F83 %29.87 in10.0 miENE (60°)10.4 mphMostly Cloudy
4:55 AM75.7 °F70.0 °F82 %29.88 in10.0 miENE (60°)11.5 mphScattered Clouds
5:50 AM77.0 °F71.6 °F83 %29.89 in10.0 miENE (60°)15.0 mphMostly Cloudy
5:51 AM77.0 °F71.6 °F83 %29.89 in10.0 miNE (50°)16.1 mphMostly Cloudy
5:55 AM76.5 °F71.6 °F85 %29.89 in10.0 miNE (50°)13.8 mphMostly Cloudy
6:55 AM76.1 °F71.4 °F85 %29.92 in10.0 miNE (50°)12.7 mphPartly Cloudy
7:55 AM77.4 °F70.7 °F80 %29.94 in10.0 miENE (70°)11.5 mphPartly Cloudy
8:55 AM79.9 °F71.1 °F74 %29.94 in10.0 miNE (50°)10.4 mphClear
9:51 AM80.6 °F73.4 °F79 %29.94 in10.0 miNNE (30°)15.0 mphMostly Cloudy
9:55 AM80.8 °F72.3 °F75 %29.95 in10.0 miNNE (30°)13.8 mphMostly Cloudy
9:56 AM80.6 °F71.6 °F74 %29.95 in10.0 miNNE (30°)15.0 mphScattered Clouds
10:53 AM80.6 °F69.8 °F70 %29.94 in10.0 miNorth (10°)13.8 mphMostly Cloudy
10:55 AM80.2 °F70.9 °F73 %29.94 in10.0 miNorth (360°)13.8 mphMostly Cloudy
11:07 AM78.8 °F71.6 °F78 %29.93 in10.0 miNorth (360°)13.8 mphMostly Cloudy
11:08 AM78.8 °F71.6 °F78 %29.94 in10.0 miNorth (10°)13.8 mphMostly Cloudy
11:13 AM78.8 °F69.8 °F74 %29.94 in9.0 miNNE (30°)18.4 mph28.8 mphRainLight Rain
11:14 AM77.0 °F69.8 °F78 %29.93 in5.0 miNNE (20°)23.0 mph31.1 mphRainHeavy Rain
11:16 AM77.0 °F71.6 °F83 %29.94 in2.5 miNorth (10°)18.4 mph31.1 mphRainHeavy Rain
11:17 AM77.0 °F71.6 °F83 %29.93 in2.0 miNorth (10°)17.3 mph31.1 mphRainHeavy Rain
11:18 AM77.0 °F71.6 °F83 %29.94 in2.0 miNorth (10°)16.1 mph31.1 mphRainHeavy Rain
11:19 AM75.2 °F71.6 °F89 %29.93 in1.8 miNorth (10°)15.0 mph31.1 mphRainHeavy Rain
11:23 AM75.2 °F73.4 °F94 %29.93 in2.0 miNNE (20°)12.7 mph31.1 mphRainLight Rain
11:24 AM75.2 °F73.4 °F94 %29.93 in2.5 miNNE (30°)12.7 mph31.1 mphRainLight Rain
11:25 AM75.2 °F73.4 °F94 %29.93 in3.0 miNNE (30°)11.5 mphRainLight Rain
11:31 AM77.0 °F73.4 °F89 %29.93 in10.0 miNE (50°)17.3 mphRainLight Rain
11:32 AM77.0 °F73.4 °F89 %29.93 in10.0 miENE (60°)18.4 mphOvercast
11:38 AM78.8 °F75.2 °F89 %29.93 in10.0 miNE (50°)16.1 mphMostly Cloudy
11:55 AM80.4 °F74.3 °F82 %29.92 in10.0 miENE (70°)15.0 mph0.00 inPartly Cloudy
12:41 PM82.4 °F71.6 °F70 %29.91 in10.0 miNE (40°)16.1 mphMostly Cloudy
12:54 PM80.6 °F73.4 °F79 %29.90 in10.0 miENE (60°)16.1 mphMostly Cloudy
12:55 PM80.6 °F73.0 °F78 %29.90 in10.0 miENE (60°)15.0 mphMostly Cloudy
1:04 PM82.4 °F73.4 °F74 %29.89 in10.0 miENE (60°)17.3 mphMostly Cloudy
1:12 PM80.6 °F73.4 °F79 %29.89 in10.0 miENE (60°)18.4 mphScattered Clouds
1:55 PM80.4 °F72.1 °F76 %29.87 in10.0 miNE (50°)16.1 mphMostly Cloudy
1:57 PM80.6 °F71.6 °F74 %29.87 in10.0 miNE (50°)13.8 mphMostly Cloudy
2:13 PM82.4 °F71.6 °F70 %29.87 in10.0 miENE (60°)17.3 mphMostly Cloudy
2:52 PM80.6 °F71.6 °F74 %29.86 in10.0 miNE (40°)15.0 mphMostly Cloudy
2:55 PM81.3 °F71.6 °F72 %29.86 in10.0 miNE (50°)16.1 mphMostly Cloudy
3:08 PM82.4 °F71.6 °F70 %29.86 in10.0 miNE (50°)17.3 mphMostly Cloudy
3:12 PM82.4 °F71.6 °F70 %29.86 in10.0 miENE (60°)18.4 mphScattered Clouds
3:55 PM81.7 °F70.7 °F69 %29.85 in10.0 miNE (40°)16.1 mph21.9 mphClear
4:55 PM80.6 °F70.9 °F72 %29.86 in10.0 miENE (60°)12.7 mphScattered Clouds
5:02 PM80.6 °F71.6 °F74 %29.86 in10.0 miNE (50°)15.0 mphMostly Cloudy
5:16 PM78.8 °F71.6 °F78 %29.87 in10.0 miENE (60°)12.7 mphScattered Clouds
5:17 PM78.8 °F71.6 °F78 %29.87 in10.0 miENE (60°)12.7 mphMostly Cloudy
5:19 PM78.8 °F71.6 °F78 %29.87 in10.0 miENE (60°)12.7 mphScattered Clouds
5:24 PM78.8 °F71.6 °F78 %29.87 in10.0 miENE (60°)11.5 mphMostly Cloudy
5:26 PM78.8 °F71.6 °F78 %29.87 in10.0 miENE (60°)12.7 mphScattered Clouds
5:55 PM79.2 °F70.9 °F76 %29.87 in10.0 miENE (60°)12.7 mphScattered Clouds
6:55 PM77.7 °F71.1 °F80 %29.88 in10.0 miENE (60°)13.8 mphMostly Cloudy
7:55 PM78.4 °F71.1 °F78 %29.89 in10.0 miNE (50°)13.8 mphMostly Cloudy
8:20 PM78.8 °F71.6 °F78 %29.89 in10.0 miNE (40°)12.7 mphOvercast
8:55 PM77.9 °F70.9 °F79 %29.90 in10.0 miNE (50°)12.7 mphOvercast
9:03 PM78.8 °F71.6 °F78 %29.90 in10.0 miNE (50°)12.7 mphOvercast
9:42 PM77.0 °F71.6 °F83 %29.90 in10.0 miNE (50°)11.5 mphMostly Cloudy
9:55 PM77.9 °F71.8 °F81 %29.90 in10.0 miENE (60°)13.8 mphOvercast
10:04 PM77.0 °F71.6 °F83 %29.91 in10.0 miENE (60°)12.7 mphMostly Cloudy
10:30 PM77.0 °F71.6 °F83 %29.91 in10.0 miENE (60°)11.5 mphMostly Cloudy
10:35 PM77.0 °F71.6 °F83 %29.91 in10.0 miENE (60°)11.5 mphMostly Cloudy
10:55 PM77.2 °F70.7 °F80 %29.91 in10.0 miENE (60°)10.4 mphMostly Cloudy
11:55 PM77.0 °F70.7 °F81 %29.91 in10.0 miNE (50°)9.2 mphClear
Hourly data recorded from PGUA, located miles away from Mangilao, Guam







STORIES FROM OUR PARTNERS